Location: Dresden
(51.0500°N, 13.7500°E)
Time: 15:57:44
(UTC+00:00)

ISS - Pass Details

Date: 24 March 2019
Orbit: 408 x 410 km, 51.6° (Epoch: 24 April)

Event Time Altitude Azimuth Distance (km) Brightness Sun altitude
Rises 20:03:38 0° 259° (W) 2,334 0.6 -24.1°
Reaches altitude 10° 20:05:43 10° 259° (W) 1,473 -0.5 -24.4°
Enters shadow 20:07:09 24° 260° (W) 904 -1.7 -24.5°
